Regional Weather Roundup
Issued by NWS

Home | Current Version | Previous Version | Text Only | Print | Product List | Glossary Off
Versions: 1 2 3 4 5 6 7 8 9 10 11 12 13 14 15 16 17 18 19 20 21 22 23 24 25 26 27 28

000
ASUS45 KTFX 190610
RWRMT
MONTANA REGIONAL WEATHER ROUNDUP
NATIONAL WEATHER SERVICE GREAT FALLS MT
1200 AM MDT THU APR 19 2018

NOTE: "FAIR" INDICATES FEW OR NO CLOUDS BELOW 12000 FEET WITH NO
SIGNIFICANT WEATHER AND/OR OBSTRUCTIONS TO VISIBILITY.

MTZ001>007-043-190700-
WEST OF THE DIVIDE

CITY           SKY/WX    TMP DP  RH WIND       PRES   REMARKS
KALISPELL      FAIR      36  27  69 N3        30.13F
MISSOULA       FAIR      39  26  59 NW7       30.10F
BUTTE          FAIR      34  21  59 SW3       30.10S
MULLAN PASS    FAIR      30  19  63 SE7       30.08S WCI  23
ANACONDA         N/A     34  21  60 SW3       30.10S
DEER LODGE       N/A     36  25  64 CALM      30.12S
HAMILTON         N/A     43  25  49 MISG      30.08S
$$

MTZ008-052>055-190700-
SOUTHWEST MONTANA

CITY           SKY/WX    TMP DP  RH WIND       PRES   REMARKS
BOZEMAN        FAIR      39  24  55 CALM      30.11S
DILLON         FAIR      37  21  52 SE7       30.07F WCI  32
ENNIS          MOCLDY    34  23  64 N3        30.12F
W YELLOWSTONE  FAIR      27  19  74 CALM      30.10F
THREE FORKS      N/A     37  28  70 CALM      30.09S
$$

MTZ009-010-012-014-046-048-049-054-190700-
EAST SLOPES AND CENTRAL MONTANA

CITY           SKY/WX    TMP DP  RH WIND       PRES   REMARKS
CUT BANK       FAIR      29  22  75 W5        30.17F
GREAT FALLS    FAIR      37  24  59 E14       30.14F WCI  28
HELENA         FAIR      39  25  57 W7        30.11F
AUGUSTA        FAIR      33  26  77 N12       30.14F WCI  24
BOWMANS CRNR   FAIR      32  25  74 NW12      30.12F WCI  23
CHOTEAU          N/A     30  25  80 NW8       30.17F WCI  23
FAIRFIELD      FAIR      30  26  84 NW3       30.14S
POWER          FAIR      35  24  65 NE9       30.14F WCI  27
RAYNESFORD     MOCLDY    38  24  56 E12       30.15F WCI  31
ULM            FAIR      35  21  57 E6        30.13F WCI  30
WHITE SULPHUR    N/A     30  23  74 CALM      30.12S
$$

MTZ011-013-016-021-045-047-050-051-190700-
NORTH CENTRAL MONTANA

CITY           SKY/WX    TMP DP  RH WIND       PRES   REMARKS
HAVRE          FAIR      38  31  76 E10       30.21S WCI  31
LEWISTOWN      FAIR      36  24  62 SE13      30.17F WCI  27
N BAR RANCH    FAIR      32  19  59 CALM      30.22S
CHINOOK          N/A     37  34  87 E5        30.24R
GEYSER         FAIR      33  24  67 E3        30.17S
GRASS RANGE    FAIR      33  26  75 W3        30.17S
STANFORD       FAIR      30  23  76 CALM      30.17S
$$

MTZ017>020-022>027-061-062-190700-
NORTHEAST MONTANA

CITY           SKY/WX    TMP DP  RH WIND       PRES   REMARKS
GLASGOW        FAIR      39  33  79 E16       30.27R WCI  30
GLENDIVE       FAIR      35  33  92 NE10      30.31R WCI  27
JORDAN           N/A     38  33  82 E7        30.25R
MALTA          CLEAR     41  36  81 NE9       30.25R
SIDNEY         CLOUDY    35  33  92 NE6       30.33S FOG     WCI  30
WOLF POINT     CLOUDY    33  31  92 E7        30.32R FOG     WCI  27
PLENTYWOOD       N/A     32  32 100 CALM      30.33R
POPLAR           N/A     30  30 100 NE6       30.34R VSB 0   WCI  24
$$

MTZ028>42-056>058-190700-
SOUTHCENTRAL AND SOUTHEAST MONTANA

CITY           SKY/WX    TMP DP  RH WIND       PRES   REMARKS
BAKER          FAIR      29  28  96 SE6       30.28S WCI  23
BILLINGS       MOCLDY    45  22  40 E10       30.17S
LIVINGSTON     FAIR      38  25  59 SE8       30.12R
MILES CITY     FAIR      42  32  67 E6        30.25R
BIG TIMBER     CLEAR     36  23  60 N7        30.16S WCI  30
FORSYTH          N/A     41  32  70 E7        30.23R
HARLOWTON      MOCLDY    36  24  60 CALM      30.17S
LAUREL           N/A     43  23  45 NE12      30.17S
$$

REGIONAL REPORTS...DAKOTAS

CITY           SKY/WX    TMP DP  RH WIND       PRES   REMARKS
WILLISTON      CLOUDY    34  32  92 NE7       30.34S FOG     WCI  28
MINOT          FAIR      34  32  92 W8        30.32R WCI  27
DICKINSON      FAIR      29  28  96 SE5       30.29R FOG
BEACH          FAIR      30  30 100 CALM      30.32S
CROSBY         CLOUDY    32  32 100 CALM      30.35R FOG
TIOGA          FOG       32  32 100 CALM      30.35R VSB 1/2
WATFORD CITY   FOG       34  34 100 NE6       30.33S VSB 1/4 WCI  29
BISMARCK       FAIR      31  28  89 CALM      30.33R
GRAND FORKS    FAIR      31  29  92 CALM      30.31R
FARGO          FAIR      33  30  88 NW3       30.29R
BUFFALO SD       N/A     40  30  67 S6        30.22
RAPID CITY     FAIR      31  29  92 CALM      30.30R
$$

REGIONAL REPORTS...WYOMING/IDAHO/WASHINGTON

CITY           SKY/WX    TMP DP  RH WIND       PRES   REMARKS
GILLETTE       FAIR      31  24  75 CALM      30.22F
SHERIDAN       FAIR      32  24  72 S3        30.20F
BUFFALO WY     FAIR      38  19  46 S6        30.22F
CODY           FAIR      36  24  62 CALM      30.16F
YELLOWSTONE LA   N/A     21  12  68 CALM      30.16F
IDAHO FALLS    FAIR      39  28  64 NE6       30.03F
SALMON         FAIR      49  20  31 E10       30.04F
BOISE          CLOUDY    53  29  39 N8        29.94S
SPOKANE        FAIR      43  31  62 NE6       30.12S
$$

REGIONAL REPORTS...ALBERTA

CITY           SKY/WX    TMP DP  RH WIND       PRES   REMARKS
CALGARY        PTCLDY    36  21  55 S5        30.15S
CARDSTON         N/A     32  27  80 S3          N/A
EDMONTON       CLEAR     37  19  48 SW8       30.14S WCI  31
FORT MCMURRAY  CLEAR     36  27  69 S2        30.08R
HIGH LEVEL     CLEAR     36  19  51 SE3       29.90F
LETHBRIDGE     CLEAR     36  27  69 S13       30.16F WCI  27
LLOYDMINSTER   CLEAR     34  25  69 S9        30.19S WCI  26
MEDICINE HAT   CLEAR     36  27  69 SW6       30.20R WCI  31
MILK RIVER       N/A     34  27  75 SE1         N/A
ONEFOUR          N/A     32  30  93 E9          N/A  WCI  24
PEACE RIVER    CLEAR     36  19  51 SW7       30.03S WCI  30
PINCHER CREEK  CLEAR     34  23  64 VRB2      30.15S
WATERTON GATE    N/A     32  23  69 S6          N/A  WCI  26
$$

REGIONAL REPORTS...SASKATCHEWAN

CITY           SKY/WX    TMP DP  RH WIND       PRES   REMARKS
CORONACH         N/A     27  25  93 SE2         N/A
CYPRESS HILLS    N/A     32  27  80 SE7         N/A  WCI  26
ESTEVAN        PTCLDY    30  30 100 NW6       30.33R FOG     WCI  24
MOOSE JAW        N/A     28  25  86 SW7         N/A  WCI  21
PRINCE ALBERT  CLEAR     32  28  86 SW5       30.27R
REGINA         CLEAR     28  27  93 SE5       30.32S
ROCKGLEN         N/A     30  27  86 SE7         N/A  WCI  23
SASKATOON      PTCLDY    36  30  80 S9        30.27S WCI  29
SWIFT CURRENT  CLEAR     34  28  80 S15       30.25S WCI  24
VAL MARIE        N/A     36  28  75 SE13        N/A  WCI  27
$$




USA.gov is the U.S. government's official web portal to all federal, state and local government web resources and services.